Regional Weather Roundup
Issued by NWS Little Rock, AR

Home | Current Version | Previous Version | Graphics & Text | Print | Product List | Glossary On
Versions: 1 2 3 4 5 6 7 8 9 10 11 12 13 14 15 16 17 18 19 20 21 22 23 24 25 26 27 28 29 30 31 32 33 34 35 36 37 38 39 40 41 42 43 44 45 46 47 48 49 50
000
ASUS44 KLZK 160805
RWRLZK

WEATHER ROUNDUP FOR ARKANSAS
NATIONAL WEATHER SERVICE LITTLE ROCK AR
300 AM CDT TUE SEP 16 2014

NOTE: "FAIR" INDICATES FEW OR NO CLOUDS BELOW 12,000 FEET WITH NO
SIGNIFICANT WEATHER AND/OR OBSTRUCTIONS TO VISIBILITY.

ARZ001-003-010-029-160900-
NORTHWEST ARKANSAS

CITY           SKY/WX    TMP DP  RH WIND       PRES   REMARKS
FAYETTEVILLE   CLOUDY    66  66 100 S5        30.17F
FORT SMITH     CLEAR     68  67  96 E3        30.13F FOG
HARRISON       CLOUDY    68  67  96 CALM      30.17S
BENTONVILLE    CLOUDY    70  66  88 CALM      30.17F
ROGERS         CLOUDY    69  67  93 NW3       30.18S
SILOAM SPGS    CLOUDY    70  64  83 S3        30.18S
HIGHFILL       CLOUDY    70  68  93 CALM      30.16F
$$

ARZ004-005-016-160900-
NORTH CENTRAL ARKANSAS

CITY           SKY/WX    TMP DP  RH WIND       PRES   REMARKS
BATESVILLE     CLEAR     66  64  94 CALM      30.12S
FLIPPIN        MOCLDY    66  63  88 CALM      30.15S
MTN HOME       MOCLDY    67  66  97 CALM      30.14S
$$

ARZ040-041-160900-
WEST CENTRAL ARKANSAS

CITY           SKY/WX    TMP DP  RH WIND       PRES   REMARKS
MENA             N/A     70  70 100 CALM        N/A
MOUNT IDA      CLOUDY    69  68  96 CALM      30.12S FOG
$$

ARZ009-017-025-026-028-160900-
NORTHEAST ARKANSAS

CITY           SKY/WX    TMP DP  RH WIND       PRES   REMARKS
CORNING          N/A     66  66 100 N6        30.12S
JONESBORO      PTCLDY    67  65  93 W5        30.10F
NEWPORT        CLEAR     65  64  96 N8        30.13R
WALNUT RIDGE   PTCLDY    59  59 100 NW5       30.11R
BLYTHEVILLE    PTCLDY    66  65  96 CALM      30.11S
$$

ARZ022-023-033-042-044-160900-
CENTRAL ARKANSAS

CITY           SKY/WX    TMP DP  RH WIND       PRES   REMARKS
LITTLE ROCK    CLOUDY    72  67  84 N3        30.13R
N LITTLE ROCK    N/A     70  69  95 NW3       30.13R
JACKSONVILLE   MOCLDY    70  68  93 W5        30.12S
SEARCY         PTCLDY    65  65 100 CALM      30.12F
HOT SPRINGS    CLOUDY    70  68  93 CALM      30.13S
RUSSELLVILLE   CLOUDY    70  67  90 CALM      30.13S
CLINTON        CLOUDY    64  64 100 CALM      30.14S FOG
$$

ARZ036-160900-
EAST ARKANSAS

CITY           SKY/WX    TMP DP  RH WIND       PRES   REMARKS
WEST MEMPHIS   PTCLDY    66  66 100 CALM      30.10S
$$

ARZ050-053-066-070-073-160900-
SOUTHWEST ARKANSAS

CITY           SKY/WX    TMP DP  RH WIND       PRES   REMARKS
ARKADELPHIA    FAIR      69  69 100 CALM      30.12F FOG
CAMDEN         LGT RAIN  68  66  94 CALM      30.10F
TEXARKANA      MOCLDY    70  70 100 NE3       30.12S
EL DORADO      CLOUDY    70  69  97 CALM      30.12F
DE QUEEN       MOCLDY    69  68  96 CALM      30.11F FOG
$$

ARZ056-057-069-160900-
SOUTHEAST ARKANSAS

CITY           SKY/WX    TMP DP  RH WIND       PRES   REMARKS
PINE BLUFF     CLOUDY    70  68  93 NW3       30.11F
STUTTGART      CLOUDY    70  64  83 W6        30.13R
MONTICELLO     CLOUDY    71  67  87 CALM      30.11F

$$




USA.gov is the U.S. government's official web portal to all federal, state and local government web resources and services.